Orbital Elements at Epoch 2459000.5 (2020-May-31.0) TDB
Reference: JPL 15 (heliocentric ecliptic J2000)
Element | Value | Uncertainty (1-sigma) | Units |
e | .09151938858219275 | 5.4661e-08 | |
a | 2.703509147832527 | 2.7694e-08 | au |
q | 2.456085643596529 | 1.3702e-07 | au |
i | 15.77246151671882 | 5.2374e-06 | deg |
node | 257.783140748476 | 2.0299e-05 | deg |
peri | 288.4057779967968 | 3.844e-05 | deg |
M | 105.7405189673085 | 3.5466e-05 | deg |
tp | 2458523.598016407104 (2019-Feb-09.09801641) | 0.00015726 | TDB |
period | 1623.641682206248 4.45 | 2.4948e-05 6.83e-08 | d yr |
n | .2217237977721922 | 3.4069e-09 | deg/d |
Q | 2.950932652068524 | 3.0228e-08 | au |
|
| | Orbit Determination Parameters
Additional Information
|